Weather History for PAWG - October, 2011

Change the Weather History Date:

Saturday, October 15, 2011

  Actual Average Record
Temperature  
Mean Temperature 43 °F -  
Max Temperature 44 °F 49 °F 56 °F (1963)
Min Temperature 42 °F 39 °F 26 °F (1992)
Degree Days  
Heating Degree Days 22    
Moisture  
Dew Point 37 °F    
Average Humidity 76    
Maximum Humidity 81    
Minimum Humidity 71    
Precipitation  
Precipitation 0.00 in - - ()
Sea Level Pressure  
Sea Level Pressure 30.08 in    
Wind  
Wind Speed 11 mph (ESE)    
Max Wind Speed 17 mph    
Max Gust Speed 23 mph    
Visibility 10 miles    
Events      
Averages and records for this station are not official NWS values.
T = Trace of Precipitation, MM = Missing Value Source: NWS Daily Summary

Daily Weather History Graph

Daily Weather History Graph

Search for Another Location

Airport or City:

Trip Planner

Search our weather history database for the weather conditions in past years. The results will help you decide how hot, cold, wet, or windy it might be!

Date:

Astronomy

Oct. 15, 2011 Rise Set
Actual Time 7:21 AM AKDT 5:47 PM AKDT
Civil Twilight 6:43 AM AKDT 6:26 PM AKDT
Nautical Twilight 5:59 AM AKDT 7:09 PM AKDT
Astronomical Twilight 5:15 AM AKDT 7:53 PM AKDT
Moon 6:58 PM AKDT (10/15) 11:42 AM AKDT (10/15)
Length of Visible Light 11h 42m
Length of Day
10h 26m
Waning Gibbous, 88% of the Moon is Illuminated
Oct 15
Waning Gibbous
Oct 19
Last Quarter
Oct 26
New
Nov 2
First Quarter
Nov 10
Full

Hourly Weather History & Observations

Time (AKDT) Temp. Windchill Dew Point Humidity Pressure Visibility Wind Dir Wind Speed Gust Speed Precip Events Conditions
12:16 AM 42.8 °F 39.3 °F 37.4 °F 81% 30.11 in 10.0 mi SE 5.8 mph - N/A   Overcast
12:36 AM 42.8 °F 40.1 °F 37.4 °F 81% 30.12 in 10.0 mi SSE 4.6 mph - N/A   Overcast
12:56 AM 42.8 °F 38.6 °F 37.4 °F 81% 30.12 in 10.0 mi ESE 6.9 mph - N/A   Overcast
1:16 AM 42.8 °F 39.3 °F 37.4 °F 81% 30.12 in 10.0 mi SSE 5.8 mph - N/A   Overcast
1:36 AM 42.8 °F 36.2 °F 37.4 °F 81% 30.11 in 10.0 mi East 12.7 mph - N/A   Overcast
1:56 AM 42.8 °F 36.2 °F 37.4 °F 81% 30.11 in 10.0 mi East 12.7 mph - N/A   Overcast
2:16 AM 42.8 °F 36.2 °F 37.4 °F 81% 30.10 in 10.0 mi East 12.7 mph - N/A   Overcast
2:36 AM 42.8 °F 37.0 °F 37.4 °F 81% 30.11 in 10.0 mi ESE 10.4 mph - N/A   Overcast
2:56 AM 42.8 °F 36.6 °F 37.4 °F 81% 30.11 in 10.0 mi ESE 11.5 mph - N/A   Overcast
3:16 AM 42.8 °F 37.0 °F 37.4 °F 81% 30.11 in 10.0 mi East 10.4 mph - N/A   Overcast
3:36 AM 42.8 °F 35.8 °F 37.4 °F 81% 30.10 in 10.0 mi East 13.8 mph - N/A   Overcast
3:56 AM 42.8 °F 36.2 °F 37.4 °F 81% 30.10 in 10.0 mi East 12.7 mph - N/A   Overcast
4:16 AM 42.8 °F 35.8 °F 37.4 °F 81% 30.10 in 10.0 mi East 13.8 mph - N/A   Overcast
4:36 AM 42.8 °F 35.8 °F 37.4 °F 81% 30.09 in 10.0 mi East 13.8 mph - N/A   Overcast
4:56 AM 42.8 °F 37.0 °F 37.4 °F 81% 30.09 in 10.0 mi East 10.4 mph - N/A   Overcast
5:16 AM 42.8 °F 36.2 °F 37.4 °F 81% 30.09 in 10.0 mi East 12.7 mph - N/A   Overcast
5:36 AM 42.8 °F 36.6 °F 37.4 °F 81% 30.09 in 10.0 mi East 11.5 mph - N/A   Overcast
5:56 AM 42.8 °F 36.6 °F 37.4 °F 81% 30.08 in 10.0 mi East 11.5 mph - N/A   Overcast
6:16 AM 42.8 °F 36.2 °F 37.4 °F 81% 30.08 in 10.0 mi East 12.7 mph - N/A   Overcast
6:36 AM 42.8 °F 36.6 °F 37.4 °F 81% 30.08 in 10.0 mi East 11.5 mph - N/A   Overcast
6:56 AM 42.8 °F 36.2 °F 37.4 °F 81% 30.08 in 10.0 mi East 12.7 mph - N/A   Overcast
7:16 AM 42.8 °F 36.2 °F 37.4 °F 81% 30.08 in 10.0 mi East 12.7 mph - N/A   Overcast
7:36 AM 42.8 °F 36.2 °F 37.4 °F 81% 30.08 in 10.0 mi East 12.7 mph - N/A   Overcast
7:56 AM 44.6 °F 37.8 °F 35.6 °F 71% 30.07 in 10.0 mi ESE 15.0 mph 19.6 mph N/A   Overcast
8:36 AM 42.8 °F 35.4 °F 37.4 °F 81% 30.07 in 10.0 mi East 15.0 mph 18.4 mph N/A   Overcast
8:56 AM 44.6 °F 38.1 °F 35.6 °F 71% 30.08 in 10.0 mi SE 13.8 mph - N/A   Overcast
9:16 AM 42.8 °F 36.2 °F 35.6 °F 76% 30.09 in 10.0 mi SE 12.7 mph - N/A   Overcast
9:36 AM 42.8 °F 36.6 °F 35.6 °F 76% 30.09 in 10.0 mi ESE 11.5 mph 16.1 mph N/A   Overcast
9:56 AM 42.8 °F 35.8 °F 35.6 °F 76% 30.09 in 10.0 mi SE 13.8 mph - N/A   Overcast
10:16 AM 44.6 °F 38.1 °F 35.6 °F 71% 30.09 in 10.0 mi ESE 13.8 mph 17.3 mph N/A   Overcast
10:36 AM 44.6 °F 38.1 °F 35.6 °F 71% 30.09 in 10.0 mi ESE 13.8 mph 18.4 mph N/A   Overcast
10:56 AM 44.6 °F 38.1 °F 35.6 °F 71% 30.09 in 10.0 mi ESE 13.8 mph 19.6 mph N/A   Overcast
11:16 AM 44.6 °F 38.1 °F 35.6 °F 71% 30.08 in 10.0 mi ESE 13.8 mph 21.9 mph N/A   Overcast
11:36 AM 44.6 °F 38.4 °F 35.6 °F 71% 30.08 in 10.0 mi ESE 12.7 mph 20.7 mph N/A   Overcast
11:56 AM 44.6 °F 37.4 °F 35.6 °F 71% 30.08 in 10.0 mi SE 16.1 mph - N/A   Overcast
12:16 PM 44.6 °F 38.1 °F 35.6 °F 71% 30.09 in 10.0 mi SE 13.8 mph 20.7 mph N/A   Overcast
12:36 PM 44.6 °F 37.4 °F 35.6 °F 71% 30.09 in 10.0 mi SE 16.1 mph - N/A   Overcast
12:56 PM 44.6 °F 37.2 °F 35.6 °F 71% 30.08 in 10.0 mi SE 17.3 mph - N/A   Overcast
1:16 PM 44.6 °F 37.8 °F 35.6 °F 71% 30.08 in 10.0 mi SE 15.0 mph 20.7 mph N/A   Overcast
1:36 PM 44.6 °F 37.4 °F 37.4 °F 76% 30.08 in 10.0 mi SE 16.1 mph 21.9 mph N/A   Overcast
1:56 PM 44.6 °F 38.1 °F 35.6 °F 71% 30.07 in 10.0 mi SE 13.8 mph - N/A   Overcast
2:16 PM 44.6 °F 38.1 °F 37.4 °F 76% 30.07 in 10.0 mi SSE 13.8 mph - N/A   Overcast
2:36 PM 44.6 °F 37.8 °F 35.6 °F 71% 30.06 in 10.0 mi SE 15.0 mph 19.6 mph N/A   Overcast
2:56 PM 44.6 °F 37.4 °F 35.6 °F 71% 30.06 in 10.0 mi SE 16.1 mph - N/A   Overcast
3:16 PM 44.6 °F 38.8 °F 35.6 °F 71% 30.06 in 10.0 mi SSE 11.5 mph 20.7 mph N/A   Overcast
3:36 PM 44.6 °F 38.4 °F 37.4 °F 76% 30.06 in 10.0 mi SE 12.7 mph - N/A   Overcast
3:56 PM 44.6 °F 37.8 °F 37.4 °F 76% 30.05 in 10.0 mi ESE 15.0 mph 20.7 mph N/A   Overcast
4:16 PM 44.6 °F 38.1 °F 37.4 °F 76% 30.05 in 10.0 mi SE 13.8 mph 19.6 mph N/A   Overcast
4:36 PM 44.6 °F 37.2 °F 35.6 °F 71% 30.04 in 10.0 mi SSE 17.3 mph - N/A   Overcast
4:56 PM 44.6 °F 37.4 °F 35.6 °F 71% 30.04 in 10.0 mi SE 16.1 mph - N/A   Overcast
5:16 PM 44.6 °F 37.4 °F 35.6 °F 71% 30.04 in 10.0 mi SE 16.1 mph 20.7 mph N/A   Overcast
5:36 PM 44.6 °F 37.4 °F 35.6 °F 71% 30.03 in 10.0 mi SE 16.1 mph - N/A   Overcast
5:56 PM 44.6 °F 37.8 °F 35.6 °F 71% 30.03 in 10.0 mi SE 15.0 mph 23.0 mph N/A   Overcast
6:16 PM 44.6 °F 37.2 °F 35.6 °F 71% 30.02 in 10.0 mi SE 17.3 mph 21.9 mph N/A   Overcast
6:36 PM 42.8 °F 34.8 °F 35.6 °F 76% 30.02 in 10.0 mi SE 17.3 mph 21.9 mph N/A   Overcast
6:56 PM 42.8 °F 35.4 °F 35.6 °F 76% 30.02 in 10.0 mi SE 15.0 mph 20.7 mph N/A   Overcast
7:16 PM 44.6 °F 37.4 °F 35.6 °F 71% 30.02 in 10.0 mi SE 16.1 mph 19.6 mph N/A   Overcast
7:36 PM 44.6 °F 38.4 °F 35.6 °F 71% 30.02 in 10.0 mi SE 12.7 mph 21.9 mph N/A   Overcast
7:56 PM 44.6 °F 38.1 °F 35.6 °F 71% 30.01 in 10.0 mi SE 13.8 mph 23.0 mph N/A   Overcast
8:16 PM 44.6 °F 37.4 °F 35.6 °F 71% 30.01 in 10.0 mi SE 16.1 mph 20.7 mph N/A   Overcast
8:36 PM 44.6 °F 37.8 °F 35.6 °F 71% 30.00 in 10.0 mi ESE 15.0 mph 21.9 mph N/A   Overcast
8:56 PM 44.6 °F 36.9 °F 35.6 °F 71% 30.00 in 10.0 mi ESE 18.4 mph 24.2 mph N/A   Overcast
9:16 PM 44.6 °F 37.8 °F 35.6 °F 71% 30.00 in 10.0 mi SE 15.0 mph 24.2 mph N/A   Overcast
9:36 PM 44.6 °F 37.4 °F 35.6 °F 71% 30.00 in 10.0 mi ESE 16.1 mph 23.0 mph N/A   Overcast
9:56 PM 44.6 °F 36.9 °F 35.6 °F 71% 30.00 in 10.0 mi ESE 18.4 mph - N/A   Overcast
10:16 PM 44.6 °F 37.4 °F 35.6 °F 71% 30.00 in 10.0 mi ESE 16.1 mph 26.5 mph N/A   Overcast
10:36 PM 44.6 °F 37.4 °F 35.6 °F 71% 29.99 in 10.0 mi ESE 16.1 mph 24.2 mph N/A   Overcast
10:56 PM 44.6 °F 37.4 °F 37.4 °F 76% 29.99 in 10.0 mi ESE 16.1 mph 23.0 mph N/A   Overcast
11:16 PM 44.6 °F 37.8 °F 37.4 °F 76% 29.99 in 10.0 mi ESE 15.0 mph 20.7 mph N/A   Overcast
11:36 PM 42.8 °F 34.8 °F 37.4 °F 81% 29.99 in 10.0 mi ESE 17.3 mph 23.0 mph N/A   Overcast
11:56 PM 44.6 °F 37.2 °F 35.6 °F 71% 29.99 in 10.0 mi ESE 17.3 mph 20.7 mph N/A   Overcast